User: anonymous   Login
Location: Drayton Valley
(53.2170°N, 114.9830°W)
Time: 20:21:20
(UTC-06:00)
Language:

Cosmos 1302 Rocket - Orbit

View from above orbital plane
View from above orbital plane
View from above satellite
View from above satellite

Ground track
Ground track

The orbit data is extracted from the following two-line orbital elements,

1 12792U 81084B   17146.26189468 +.00000018 +00000-0 +14701-4 0  9991
2 12792 074.0309 075.7590 0013476 001.9619 358.1584 14.37467369871635
Epoch (UTC): 26 May 2017 06:17:07
Eccentricity: 0.0013476
inclination: 74.0309°
perigee height: 757 km
apogee height: 776 km
right ascension of ascending node: 75.7590°
argument of perigee: 1.9619°
revolutions per day: 14.37467369
mean anomaly at epoch: 358.1584°
orbit number at epoch: 87163

The dashed part of the orbit path shows where the satellite is in the earth's shadow,  

DLR